This is the latest recevied weather packets stored in our database for station/object K7LDN-13. If no packets are shown the sender has not sent any weather packets the latest 10 day(s).
| Time | Temp. | Humidity | Pressure | Rain* | Wind** | Luminosity | Snow |
|---|---|---|---|---|---|---|---|
| 1777492877 | 15.56° C | 26% | 1022.1 hPa | 0 mm | - | 259 W/m² | - |
| 1777490752 | 16.11° C | 27% | 1022.5 hPa | 0 mm | - | 660 W/m² | - |
| 1777488934 | 15.56° C | 31% | 1022.6 hPa | 0 mm | - | 380 W/m² | - |
| 1777487422 | 15.56° C | 28% | 1022.7 hPa | 0 mm | - | 859 W/m² | - |
| 1777486815 | 15° C | 29% | 1022.9 hPa | 0 mm | - | 841 W/m² | - |
| 1777483781 | 13.89° C | 35% | 1023.3 hPa | 0 mm | - | 832 W/m² | - |
| 1777482870 | 13.89° C | 42% | 1023.4 hPa | 0 mm | - | 770 W/m² | - |
| 1777482263 | 13.33° C | 44% | 1023.4 hPa | 0 mm | - | 739 W/m² | - |
| 1777480748 | 11.67° C | 50% | 1023.4 hPa | 0 mm | - | 674 W/m² | - |
| 1777480444 | 12.22° C | 49% | 1023.4 hPa | 0 mm | - | 662 W/m² | - |
| 1777480140 | 12.22° C | 50% | 1023.4 hPa | 0 mm | - | 653 W/m² | - |
| 1777479836 | 11.67° C | 49% | 1023.5 hPa | 0 mm | - | 642 W/m² | - |
| 1777479534 | 11.67° C | 50% | 1023.6 hPa | 0 mm | - | 623 W/m² | - |
| 1777479231 | 11.67° C | 50% | 1023.7 hPa | 0 mm | - | 608 W/m² | - |
| 1777478927 | 11.67° C | 49% | 1023.6 hPa | 0 mm | - | 601 W/m² | - |
| 1777478624 | 11.11° C | 49% | 1023.5 hPa | 0 mm | - | 581 W/m² | - |
| 1777478018 | 11.11° C | 49% | 1023.5 hPa | 0 mm | - | 546 W/m² | - |
| 1777477106 | 10.56° C | 47% | 1023.6 hPa | 0 mm | - | 489 W/m² | - |
| 1777476804 | 10° C | 47% | 1023.5 hPa | 0 mm | - | 466 W/m² | - |
| 1777476501 | 10° C | 47% | 1023.7 hPa | 0 mm | - | 451 W/m² | - |
| 1777476197 | 10° C | 46% | 1023.6 hPa | 0 mm | - | 438 W/m² | - |
| 1777475892 | 9.44° C | 47% | 1023.7 hPa | 0 mm | - | 422 W/m² | - |
| 1777475589 | 10.56° C | 49% | 1023.5 hPa | 0 mm | - | 415 W/m² | - |
| 1777475285 | 10° C | 51% | 1023.5 hPa | 0 mm | - | 401 W/m² | - |
| 1777474980 | 10° C | 52% | 1023.6 hPa | 0 mm | - | 387 W/m² | - |
* Rain latest hour (hover to see other rain measurements)
** Current wind speed in m/s (hover to see current wind gust speed)